Hourly Data Report for October 18, 2016

All times are specified in Local Standard Time (LST). Add 1 hour to adjust for Daylight Saving Time where and when it is observed.

WINNIPEG A CS
MANITOBA

49°55'00.000" N
97°14'58.000" W
238.70 m
502S001
71849
XWG

Download Data

Hourly Data (October 2016)
Hourly Data Report for October 18, 2016
Temp Definition
°C
Dew Point Temp Definition
°C
Rel Hum Definition
%
Wind Dir Definition
10's deg

Wind Spd Definition
km/h
Visibility Definition
km
Stn Press Definition
kPa
Hmdx Definition


Wind Chill Definition


Weather Definition


TIME
00:00 5.2 3.9 91 30 11   97.36     LegendNANA
01:00 5.7 4.4 92 29 10   97.38     LegendNANA
02:00 5.5 3.7 88 29 13   97.45     LegendNANA
03:00 5.3 3.6 89 27 12   97.48     LegendNANA
04:00 5.4 3.1 85 28 16   97.53     LegendNANA
05:00 5.1 3.3 88 26 15   97.60     LegendNANA
06:00 4.8 3.0 88 29 13   97.63     LegendNANA
07:00 4.5 3.0 89 28 11   97.67     LegendNANA
08:00 4.8 2.8 87 27 10   97.73     LegendNANA
09:00 5.2 2.9 85 26 13   97.78     LegendNANA
10:00 5.3 2.0 80 27 20   97.83     LegendNANA
11:00 5.7 1.2 73 28 23   97.84     LegendNANA
12:00 5.7 1.1 72 27 26   97.88     LegendNANA
13:00 5.8 0.8 70 28 23   97.87     LegendNANA
14:00 5.1 1.1 75 28 28   97.94     LegendNANA
15:00 5.3 0.5 71 28 25   97.96     LegendNANA
16:00 5.3 0.3 70 26 18   98.01     LegendNANA
17:00 5.1 0.6 73 25 20   98.05     LegendNANA
18:00 4.9 0.3 72 27 22   98.11     LegendNANA
19:00 4.5 0.4 75 27 20   98.18     LegendNANA
20:00 4.2 0.6 77 28 15   98.26     LegendNANA
21:00 4.1 0.4 77 27 17   98.30     LegendNANA
22:00 3.9 0.0 75 26 18   98.35     LegendNANA
23:00 3.8 0.1 77 27 16   98.38     LegendNANA

Notes on Data Quality.

Legend

  • E = Estimated
  • M = Missing
  • NA = Not Available
  • ‡ = Partner data that is not subject to review by the National Climate Archives
Date modified: